This is the latest recevied weather packets stored in our database for station/object SP3TOM-10. If no packets are shown the sender has not sent any weather packets the latest 10 day(s).
| Time | Temp. | Humidity | Pressure | Rain* | Wind** | Luminosity | Snow |
|---|---|---|---|---|---|---|---|
| 1778052757 | 17.22° C | 50% | 993.8 hPa | - | - | - | - |
| 1778051857 | 17.22° C | 50% | 994 hPa | - | - | - | - |
| 1778050956 | 16.67° C | 51% | 993.8 hPa | - | - | - | - |
| 1778050056 | 16.67° C | 52% | 993.8 hPa | - | - | - | - |
| 1778049156 | 16.67° C | 52% | 993.8 hPa | - | - | - | - |
| 1778048256 | 16.11° C | 53% | 993.5 hPa | - | - | - | - |
| 1778047356 | 16.11° C | 53% | 993.7 hPa | - | - | - | - |
| 1778046455 | 16.11° C | 53% | 993.9 hPa | - | - | - | - |
| 1778045554 | 16.11° C | 54% | 993.6 hPa | - | - | - | - |
| 1778044654 | 16.11° C | 54% | 993.6 hPa | - | - | - | - |
| 1778043754 | 15.56° C | 54% | 993.6 hPa | - | - | - | - |
| 1778042854 | 15.56° C | 54% | 993.8 hPa | - | - | - | - |
| 1778041954 | 15.56° C | 54% | 993.7 hPa | - | - | - | - |
| 1778041053 | 15.56° C | 54% | 994 hPa | - | - | - | - |
| 1778040153 | 15.56° C | 54% | 994.2 hPa | - | - | - | - |
| 1778039253 | 15.56° C | 54% | 994.2 hPa | - | - | - | - |
| 1778038353 | 15.56° C | 54% | 994.4 hPa | - | - | - | - |
| 1778037453 | 15.56° C | 54% | 994.6 hPa | - | - | - | - |
| 1778036553 | 15.56° C | 54% | 994.6 hPa | - | - | - | - |
| 1778035653 | 15.56° C | 54% | 995.1 hPa | - | - | - | - |
| 1778034752 | 16.11° C | 54% | 995.3 hPa | - | - | - | - |
| 1778033852 | 16.11° C | 53% | 995.2 hPa | - | - | - | - |
| 1778032952 | 16.11° C | 54% | 995.1 hPa | - | - | - | - |
| 1778032052 | 16.67° C | 51% | 995.4 hPa | - | - | - | - |
| 1778031152 | 16.11° C | 54% | 995.3 hPa | - | - | - | - |
* Rain since midnight (hover to see other rain measurements)
** Current wind speed in m/s (hover to see current wind gust speed)